COSMOS 397 DEB, 5014

Orbit data source: Space-Track

COSMOS 397 DEB, 5014 is space debris in LEO originally from a launch on Thu, 25 Feb 1971 UTC launched from the Tyuratam Missile And Space Complex (TTMTR). Debris objects in space refer to the collection of defunct objects orbiting the Earth. Examples of debris include non-operational satellites, rocket bodies, and fragments generated from explosions, collisions, or faulty payload assembly.

Loading next visibility...
Identifier
5014, 1971-015H
Orbit
LEO
Country
Flag of CISCIS
Related business
Manufacturer
Unknown
Mission
Spacecraft
Bus & Motor
Unknown
Mass
Unknown
Launch date (UTC)
1971-02-25 (55 years ago)
Launch vehicle
Unknown
Launch site
Tyuratam Missile And Space Complex (TTMTR)
Object type
Payload
Rocket body
Debris
Shape & HBR
Unknown shape, 0.1 m
Radar Cross Section
Small (<0.1 m²)

Expand to show TLE details & history
Last TLE update: 16 hours ago

TLE from 16 hours ago
0 COSMOS 397 DEB
1 05014U 71015H   25351.58761513  .00002935  00000-0  74242-3 0  9997
2 05014  65.5811  65.6057 0571369 340.7130  17.3065 13.84413070651359
Epoch: 2025-12-17T14:06Z
TLE epoch observation values (Epoch: 2025-12-17T14:06:09.947Z)
Latitude
-0.00002°
Longitude
127.60892°
Altitude
552.873 km
Speed
7.789 km/s
True Right ascension
04h 22m 25s
True Declination
0° 00' 00"
Sunlit
Object was in full shadow at epoch
Visualization orbit readout
Latitude
Unknown
Longitude
Unknown
Altitude
Unknown
Speed
Unknown
Apparent Right ascension
Unknown
Apparent Declination
Unknown
Sunlit
N/A
Visualization observer readout
Local Sidereal Time
04:33:02
Azimuth
Unknown
Elevation
Unknown
Doppler factor
Unknown
Orbital elements
Apogee altitude
1,365.333 km
Perigee altitude
528.284 km
Semi-major axis
7,324.946 km
Eccentricity
0.05714
Inclination
65.5811°
RAAN
65.6057°
Arg. of periapsis
340.713°
True anomaly
19.39585°
Mean anomaly
17.3065°
Eccentric anomaly
18.33639°
Mean motion
3.46208 °/min
Orbital period
103.98 mins
BSTAR
0.00074242
Loading maneuver chart data...
Computing Atmospheric mass density...

Documentation

Showing up to 5 results
|